Tracking 17142 objects as of 28-May-2015
HD Live streaming from Space Station

PSLV DEB

Track PSLV DEB now!
10-day predictions
PSLV DEB is classified as:


NORAD ID: 27114
Int'l Code: 2001-049BJ
Perigee: 483.2 km
Apogee: 504.1 km
Inclination: 97.8 °
Period: 94.3 minutes
Semi major axis: 6864 km
RCS: 0.0473 m2 (small)
Launch date: October 22, 2001
Source: India (IND)

Note: This is SATELLITE DEBRIS
Your satellite tracking list
Your tracking list is empty





NASA's NSSDC Master Catalog

Two Line Element Set (TLE):
1 27114U 01049BJ  15148.47797058  .00017309  00000-0  66481-3 0  9993
2 27114 097.8175 124.9980 0015224 039.2193 321.0144 15.26412827729616

Source of the keplerian elements: AFSPC

N2YO: 317